Weather Roundup
Issued by NWS Chicago, IL

Home | Current Version | Previous Version | Text Only | Print | Product List | Glossary Off
Versions: 1 2 3 4 5 6 7 8 9 10 11 12 13 14 15 16 17 18 19 20 21 22 23 24 25 26 27 28 29 30 31 32 33 34 35 36 37 38 39 40 41 42 43 44 45 46 47 48 49 50

000
NZUS59 KLOT 111610
HRRLOT

CHICAGO AREA WEATHER ROUNDUP
NATIONAL WEATHER SERVICE CHICAGO/ROMEOVILLE IL
1100 AM CDT FRI JUL 11 2014

NOTE: "FAIR" INDICATES FEW OR NO CLOUDS BELOW 12,000 FEET WITH NO
SIGNIFICANT WEATHER AND/OR OBSTRUCTIONS TO VISIBILITY.

* THESE STATIONS ARE NOT UNDER NWS QUALITY CONTROL. THEY ALSO MAY NOT
  REPORT WEATHER SUCH AS PRECIPITATION OR FOG.

ILZ005-006-012>014-019>023-111700-
NORTHEAST ILLINOIS

CITY           SKY/WX    TMP DP  RH WIND       PRES   REMARKS
OHARE          MOSUNNY   77  52  41 SW7       30.20S
MIDWAY         MOSUNNY   78  51  38 VRB3      30.20S
AURORA         SUNNY     77  56  48 S9        30.21S
LANSING*       SUNNY     76  51  42 SW3       30.22R
JOLIET*        SUNNY     76  52  42 S8        30.21F
WAUKEGAN       SUNNY     76  57  51 SE7       30.18F
DUPAGE AIRPORT SUNNY     77  56  48 S9        30.20F
WHEELING       SUNNY     78  54  43 SE7       30.21F
KANKAKEE*      SUNNY     76  56  49 E3        30.22S
MORRIS*        SUNNY     77  57  50 SE7       30.21S
LEWIS AIRPORT* SUNNY     76  54  47 SW8       30.21S
NORTHERLY IS     N/A     72  61  68 E7          N/A
$$

WIZ051-052-058>065-066-070>072-111700-
SOUTHEAST WISCONSIN

CITY           SKY/WX    TMP DP  RH WIND       PRES   REMARKS
MILWAUKEE      MOSUNNY   76  56  49 S7        30.18F
KENOSHA*       SUNNY     77  58  51 S8        30.19F
RACINE*        SUNNY     75  57  53 SE12      30.20F
BURLINGTON     SUNNY     74  57  56 S6        30.19R
WAUKESHA       MOSUNNY   75  55  50 S9        30.19F
WEST BEND      SUNNY     77  54  44 S10       30.17S
$$

INZ001>003-010>013-019-020-111700-
NORTHWEST INDIANA

CITY           SKY/WX    TMP DP  RH WIND       PRES   REMARKS
GARY*          MOSUNNY   77  52  41 S7        30.23R
MICHIGAN CITY* NOT AVBL
RENSSELAER*    NOT AVBL
VALPARAISO     SUNNY     75  54  47 SE7       30.23S
$$

LMZ740>746-111700-
SOUTHERN LAKE MICHIGAN

STATION/POSITION TIME  SKY/WX   TEMP WIND        PRES    VSBY
                                AIR  DIR/SP/G
                 (UTC)          (F)  (DEG/KT/KT) (MB)    (MI)
HARRISON CRIB    1600            69  130/ 10/ 11   N/A
BURNHAM HARBOR   1600            72   90/  8       N/A
CALUMET HARBOR   1600            73   70/  6/  7 1023.8R
BURNS HARBOR     NOT AVBL
MICHIGAN CITY    1600            74  100/  2/  6   N/A
$$

ABBREVIATIONS USED IN REMARKS
   TC - TEMPERATURE IN CELSIUS
  WCI - WIND CHILL INDEX
   HX - HEAT INDEX
  VSB - VISIBILITY
$$


USA.gov is the U.S. government's official web portal to all federal, state and local government web resources and services.